Location: Ambrosina
(19.9365°S, 43.9833°W)
Time: 00:39:57
(UTC+00:00)

IRIDIUM 104 - Pass Details

Date: 11 May 2021
Orbit: 776 x 779 km, 86.4° (Epoch: 20 June)

Event Time Altitude Azimuth Distance (km) Brightness Sun altitude
Rises 20:51:54 0° 174° (S) 3,278 7.3 -6.0°
Reaches altitude 10° 20:54:19 10° 169° (S) 2,345 6.6 -6.5°
Maximum altitude 20:59:27 54° 92° (E) 940 4.5 -7.7°
Drops below altitude 10° 21:04:32 10° 14° (NNE) 2,322 6.8 -8.8°
Sets 21:06:54 0° 10° (N) 3,243 7.6 -9.4°
